User: anonymous
Location: Cimarron National Grasslands
(37.1250°N, 101.7500°W)
Time: 08:02:53
(UTC-05:00)
Language:

Ariane Rocket - Orbit

View from above orbital plane
View from above orbital plane
View from above satellite
View from above satellite

Ground track
Ground track

The orbit data is extracted from the following two-line orbital elements,

1 23561U 95021B   14292.49894037  .00000678  00000-0  24245-3 0  8974
2 23561 098.6989 259.9452 0005996 252.8714 215.3663 14.37351161 21632
Epoch (UTC): 19 October 2014 11:58:28
Eccentricity: 0.0005996
inclination: 98.6989°
perigee height: 763 km
apogee height: 771 km
right ascension of ascending node: 259.9452°
argument of perigee: 252.8714°
revolutions per day: 14.37351161
mean anomaly at epoch: 215.3663°
orbit number at epoch: 2163

The dashed part of the orbit path shows where the satellite is in the earth's shadow,  

DLR